Back to catalog

STARLINK-36369

AliveCommunicationsSSO
NORAD 67723·PAYLOAD·🇺🇸 United States

Launched Feb 11, 2026 from Vandenberg Space Force Base

Loading…

Next Passes (next 24 hours)

TLE

FreshSource: CelesTrak SupGP

Epoch: Sep 15, 2026, 03:04 UTC

1 67723C 26026C   26258.12826389  .00005947  00000+0  18459-3 0  2585
2 67723  97.2851 309.9750 0001316  83.5426 267.6636 15.33440569    18

Track STARLINK-36369 in real time with AllMySat

Download on the App Store